ENST Weather Reports


Display with metric or nautical units.
time (UTC)temp
F
wind
direction
speed
MPH
gust
MPH
rain 1hr
in
rain 24hr
in
rain mn
in
humidity
%
barometer
mb
20260510100308 42 190 24.0 0.0 0.00 0.00 0.00 81 1008.0
20260510093307 42 190 24.0 0.0 0.00 0.00 0.00 86 1008.0
20260510090307 42 190 28.0 0.0 0.00 0.00 0.00 81 1007.0
20260510083307 41 200 26.0 0.0 0.00 0.00 0.00 86 1007.0
20260510080308 42 190 23.0 36.0 0.00 0.00 0.00 75 1007.0
20260510073308 42 190 26.0 0.0 0.00 0.00 0.00 81 1008.0
20260510070308 44 190 23.0 0.0 0.00 0.00 0.00 81 1008.0
20260510063308 42 190 25.0 38.0 0.00 0.00 0.00 81 1008.0
20260510060307 41 200 26.0 40.0 0.00 0.00 0.00 86 1008.0
20260510053307 42 190 23.0 36.0 0.00 0.00 0.00 81 1008.0
20260510050307 42 190 26.0 0.0 0.00 0.00 0.00 81 1008.0
20260510043307 41 190 20.0 0.0 0.00 0.00 0.00 86 1008.0
20260510040306 41 200 26.0 38.0 0.00 0.00 0.00 86 1008.0
20260510033307 41 190 23.0 0.0 0.00 0.00 0.00 86 1009.0
20260510030306 41 190 23.0 0.0 0.00 0.00 0.00 86 1009.0
20260510023308 41 190 22.0 33.0 0.00 0.00 0.00 86 1009.0
20260510020307 41 190 22.0 0.0 0.00 0.00 0.00 86 1009.0
20260510013306 41 190 28.0 0.0 0.00 0.00 0.00 86 1010.0
20260510010307 42 200 25.0 0.0 0.00 0.00 0.00 81 1010.0
20260510003306 42 190 24.0 0.0 0.00 0.00 0.00 75 1010.0
20260510000308 42 190 23.0 0.0 0.00 0.00 0.00 81 1011.0
20260509233307 42 190 23.0 0.0 0.00 0.00 0.00 81 1011.0
20260509230307 44 190 21.0 0.0 0.00 0.00 0.00 70 1011.0
20260509223308 44 190 18.0 0.0 0.00 0.00 0.00 70 1012.0
20260509220306 44 180 17.0 0.0 0.00 0.00 0.00 65 1012.0
20260509213307 44 170 15.0 0.0 0.00 0.00 0.00 65 1012.0
20260509210307 44 170 16.0 0.0 0.00 0.00 0.00 65 1013.0
20260509203307 44 180 15.0 0.0 0.00 0.00 0.00 65 1013.0
20260509200307 44 170 14.0 0.0 0.00 0.00 0.00 65 1013.0
20260509193307 42 180 15.0 0.0 0.00 0.00 0.00 70 1014.0
20260509190307 42 180 15.0 0.0 0.00 0.00 0.00 75 1014.0
20260509183306 42 170 17.0 0.0 0.00 0.00 0.00 75 1014.0
20260509180308 42 180 14.0 0.0 0.00 0.00 0.00 75 1014.0
20260509173308 41 180 12.0 0.0 0.00 0.00 0.00 86 1015.0
20260509170307 41 220 14.0 0.0 0.00 0.00 0.00 93 1015.0
20260509163307 42 230 12.0 0.0 0.00 0.00 0.00 86 1015.0
20260509160308 44 230 5.0 0.0 0.00 0.00 0.00 93 1015.0
20260509153308 44 0 2.0 0.0 0.00 0.00 0.00 93 1015.0
20260509150308 46 0 1.0 0.0 0.00 0.00 0.00 87 1015.0
20260509143307 46 0 1.0 0.0 0.00 0.00 0.00 87 1015.0
20260509140307 48 0 2.0 0.0 0.00 0.00 0.00 75 1016.0
20260509133308 48 0 2.0 0.0 0.00 0.00 0.00 75 1016.0
20260509130307 48 0 2.0 0.0 0.00 0.00 0.00 75 1016.0
20260509123307 50 0 2.0 0.0 0.00 0.00 0.00 71 1016.0
20260509120307 48 250 7.0 0.0 0.00 0.00 0.00 75 1016.0
20260509113307 50 220 9.0 0.0 0.00 0.00 0.00 66 1016.0
20260509110308 51 210 9.0 0.0 0.00 0.00 0.00 61 1016.0
20260509103307 51 180 10.0 0.0 0.00 0.00 0.00 57 1016.0